This demonstration page uses our WeatherBlox Daily Observations layout. Learn more.

Left ArrowRight Arrow

40.92945, -100.16068

Hourly Observations for January 15, 2021

Temp ( °F °C ) Dew Point ( °F °C ) Humidity (%) Winds ( mph kmh ) Pressure ( in mb ) Visibility ( mi km ) Precip ( " mm )
12:15 am 00:15 Cloudy 35 1.6 13 -10.3 41 41 NNW 32 52 29.97 1015 10 16.0934 0 0
12:35 am 00:35 Cloudy 35 1.7 12 -11.2 38 38 NNW 33 54 29.96 1015 10 16.0934 0 0
12:55 am 00:55 Cloudy 35 1.5 12 -10.9 40 40 NNW 32 52 29.96 1015 10 16.0934 0 0
1:15 am 01:15 Cloudy 34 1.3 12 -10.9 40 40 NNW 39 63 29.96 1015 10 16.0934 0 0
1:35 am 01:35 Cloudy 34 1.2 13 -10.7 41 41 NNW 32 52 29.96 1015 10 16.0934 0 0
1:55 am 01:55 Cloudy 34 1.1 13 -10.8 41 41 NNW 40 65 29.97 1015 10 16.0934 0 0
2:15 am 02:15 Cloudy 34 1 13 -10.7 42 42 NNW 39 63 29.97 1015 10 16.0934 0 0
2:35 am 02:35 Cloudy 33 0.7 13 -10.5 43 43 NNW 31 50 29.97 1015 10 16.0934 0 0
2:55 am 02:55 Cloudy 33 0.6 14 -9.9 46 46 NNW 39 63 29.97 1015 10 16.0934 0 0
3:15 am 03:15 Cloudy 33 0.5 15 -9.5 47 47 NNW 46 74 29.99 1016 10 16.0934 0 0
3:35 am 03:35 Very Windy with Snow Likely 32 0 19 -7.4 58 58 NNW 39 63 29.99 1015 10 16.0934 0 0
3:55 am 03:55 Cloudy 32 0 18 -8 55 55 NNW 26 43 29.98 1015 10 16.0934 0 0
4:15 am 04:15 Cloudy 32 0 17 -8.1 55 55 NNW 26 43 29.98 1015 10 16.0934 0 0
4:35 am 04:35 Cloudy 32 0 17 -8.4 54 54 NNW 47 76 29.98 1015 7 11.26538 0 0
4:55 am 04:55 Windy with Snow Likely 31 -0.7 20 -6.9 63 63 NNW 31 50 29.98 1015 7 11.26538 0 0
5:15 am 05:15 Cloudy 31 -0.7 18 -7.6 60 60 NNW 38 61 29.98 1015 10 16.0934 0 0
5:47 am 05:47 Cloudy 30 -1 18 -8 59 59 NNW 39 63 29.98 1015 10 16.0934 0 0
6:24 am 06:24 Cloudy 30 -1 18 -8 59 59 NNW 35 56 29.99 1015 10 16.0934 0 0
6:55 am 06:55 Cloudy 31 -0.8 17 -8.2 58 58 NNW 36 57 29.98 1015 10 16.0934 0 0
7:15 am 07:15 Cloudy 31 -0.8 17 -8.2 58 58 NNW 37 59 29.98 1015 10 16.0934 0 0
7:35 am 07:35 Cloudy 30 -1 17 -8.5 57 57 NNW 38 61 29.99 1015 10 16.0934 0 0
7:55 am 07:55 Cloudy 30 -1.1 18 -8 60 60 NNW 39 63 30 1016 10 16.0934 0 0
8:15 am 08:15 Cloudy 30 -1.2 18 -7.7 62 62 NNW 40 65 30.01 1016 10 16.0934 0 0
8:35 am 08:35 Cloudy 30 -1.2 19 -7.5 63 63 NNW 39 63 30.02 1017 10 16.0934 0 0
8:55 am 08:55 Cloudy 30 -1.1 18 -7.6 62 62 NNW 35 56 30.03 1017 10 16.0934 0 0
9:15 am 09:15 Cloudy 30 -1 17 -8.2 59 59 NNW 36 57 30.03 1017 10 16.0934 0 0
9:35 am 09:35 Cloudy 31 -0.8 17 -8.2 58 58 NNW 40 65 30.03 1017 10 16.0934 0 0
9:55 am 09:55 Cloudy 31 -0.6 17 -8.3 56 56 NNW 39 63 30.04 1017 10 16.0934 0 0
10:15 am 10:15 Cloudy 31 -0.7 17 -8.2 57 57 NNW 40 65 30.05 1018 10 16.0934 0 0
10:35 am 10:35 Cloudy 31 -0.5 18 -8 57 57 NNW 40 65 30.06 1018 10 16.0934 0 0
10:55 am 10:55 Cloudy 31 -0.5 18 -8 57 57 NNW 33 54 30.07 1018 10 16.0934 0 0
11:15 am 11:15 Cloudy 31 -0.5 18 -7.8 58 58 NNW 31 50 30.07 1018 10 16.0934 0 0
11:35 am 11:35 Cloudy 31 -0.5 18 -7.7 59 59 NNW 37 59 30.07 1018 10 16.0934 0 0
11:55 am 11:55 Cloudy 31 -0.3 18 -7.8 57 57 NNW 40 65 30.07 1018 10 16.0934 0 0
12:15 pm 12:15 Cloudy 32 -0.2 17 -8.1 56 56 NNW 37 59 30.07 1018 10 16.0934 0 0
12:35 pm 12:35 Cloudy 32 -0.1 18 -7.7 57 57 NNW 36 57 30.06 1018 10 16.0934 0 0
12:55 pm 12:55 Cloudy 32 -0.2 17 -8.1 56 56 NNW 31 50 30.06 1018 10 16.0934 0 0
1:15 pm 13:15 Cloudy 32 0 18 -8 55 55 NNW 31 50 30.05 1017 10 16.0934 0 0
1:35 pm 13:35 Cloudy 33 0.3 18 -7.7 55 55 NNW 31 50 30.05 1018 10 16.0934 0 0
1:55 pm 13:55 Cloudy 33 0.5 18 -7.6 55 55 NNW 29 46 30.05 1018 10 16.0934 0 0
2:15 pm 14:15 Cloudy 33 0.5 18 -7.6 55 55 NNW 30 48 30.05 1018 10 16.0934 0 0
2:35 pm 14:35 Cloudy 33 0.6 19 -7.4 55 55 NNW 25 41 30.05 1018 10 16.0934 0 0
2:55 pm 14:55 Cloudy 33 0.7 19 -7.2 56 56 NNW 24 39 30.06 1018 10 16.0934 0 0
3:15 pm 15:15 Cloudy 33 0.5 19 -7.3 56 56 NNW 28 44 30.07 1018 10 16.0934 0 0
3:35 pm 15:35 Cloudy 33 0.5 19 -7.2 57 57 NNW 26 43 30.08 1019 10 16.0934 0 0
3:55 pm 15:55 Cloudy 33 0.5 19 -7 58 58 NNW 23 37 30.08 1019 10 16.0934 0 0
4:15 pm 16:15 Cloudy 33 0.5 19 -7.1 57 57 NNW 25 41 30.08 1019 10 16.0934 0 0
4:35 pm 16:35 Cloudy 33 0.5 19 -7.2 57 57 NNW 29 46 30.08 1019 10 16.0934 0 0
4:55 pm 16:55 Cloudy 33 0.3 19 -7.1 58 58 NNW 21 33 30.09 1019 10 16.0934 0 0
5:15 pm 17:15 Cloudy 33 0.3 19 -7.1 58 58 NNW 22 35 30.1 1019 10 16.0934 0 0
5:35 pm 17:35 Cloudy 33 0.3 19 -7 58 58 NNW 21 33 30.11 1020 10 16.0934 0 0
5:55 pm 17:55 Cloudy 33 0.5 19 -7 58 58 NNW 17 28 30.11 1020 10 16.0934 0 0
6:15 pm 18:15 Cloudy 33 0.5 19 -7.1 57 57 NNW 22 35 30.11 1020 10 16.0934 0 0
6:35 pm 18:35 Cloudy 33 0.5 19 -7.1 57 57 NNW 22 35 30.11 1020 10 16.0934 0 0
6:55 pm 18:55 Cloudy 32 0 19 -7 60 60 NNW 17 28 30.12 1020 10 16.0934 0 0
7:15 pm 19:15 Cloudy 32 0 19 -7.2 59 59 NNW 18 30 30.13 1020 10 16.0934 0 0
7:35 pm 19:35 Mostly Cloudy 31 -0.5 19 -7.2 61 61 NNW 15 24 30.13 1020 10 16.0934 0 0
7:55 pm 19:55 Partly Cloudy 30 -0.9 19 -7.4 62 62 NNW 15 24 30.14 1021 10 16.0934 0 0
8:15 pm 20:15 Clear 29 -1.8 19 -7.4 66 66 NW 12 19 30.15 1021 10 16.0934 0 0
8:35 pm 20:35 Clear 28 -2.5 19 -7.2 70 70 NW 10 17 30.15 1021 10 16.0934 0 0
8:55 pm 20:55 Clear 27 -2.7 19 -7.3 71 71 NW 10 17 30.14 1021 10 16.0934 0 0
9:15 pm 21:15 Clear 26 -3.6 19 -7.5 75 75 WNW 7 11 30.15 1021 10 16.0934 0 0
9:35 pm 21:35 Clear 25 -3.7 19 -7.5 75 75 WNW 8 13 30.14 1021 10 16.0934 0 0
9:55 pm 21:55 Clear 25 -4 18 -7.8 75 75 WNW 8 13 30.15 1021 10 16.0934 0 0
10:15 pm 22:15 Clear 25 -3.8 18 -8 73 73 WNW 9 15 30.15 1021 10 16.0934 0 0
10:35 pm 22:35 Clear 25 -4 17 -8.1 73 73 NW 8 13 30.15 1021 10 16.0934 0 0
10:55 pm 22:55 Clear 24 -4.3 17 -8.2 75 75 WNW 7 11 30.13 1020 10 16.0934 0 0
11:15 pm 23:15 Clear 23 -4.8 17 -8.1 78 78 W 6 9 30.14 1021 10 16.0934 0 0
11:35 pm 23:35 Clear 24 -4.7 18 -8 78 78 WNW 5 7 30.13 1020 10 16.0934 0 0
11:55 pm 23:55 Clear 24 -4.7 18 -7.9 79 79 Calm 30.11 1020 10 16.0934 0 0

Powered by AerisWeather